| time (UTC) | temp F | wind direction | speed knots | gust knots | rain 1hr in | rain 24hr in | rain mn in | humidity % | barometer mb |
| 20260508075005 | 58 | 249 | 2.6 | 5.2 | 0.05 | 0.18 | 0.18 | 97 | 1004.2 |
| 20260508074505 | 58 | 271 | 2.6 | 5.2 | 0.07 | 0.18 | 0.18 | 98 | 1004.2 |
| 20260508074006 | 59 | 263 | 2.6 | 5.2 | 0.05 | 0.17 | 0.17 | 99 | 1004.7 |
| 20260508073506 | 60 | 259 | 3.5 | 5.2 | 0.07 | 0.17 | 0.17 | 99 | 1003.8 |
| 20260508073005 | 61 | 256 | 0.0 | 7.8 | 0.07 | 0.17 | 0.17 | 99 | 1004.2 |
| 20260508072505 | 61 | 280 | 1.7 | 7.8 | 0.07 | 0.17 | 0.17 | 99 | 1004.7 |
| 20260508072005 | 61 | 296 | 2.6 | 5.2 | 0.07 | 0.17 | 0.17 | 99 | 1004.8 |
| 20260508071506 | 61 | 288 | 2.6 | 4.3 | 0.05 | 0.16 | 0.16 | 99 | 1004.6 |
| 20260508071005 | 62 | 279 | 2.6 | 4.3 | 0.04 | 0.15 | 0.15 | 99 | 1004.4 |
| 20260508070505 | 62 | 262 | 0.9 | 5.2 | 0.05 | 0.15 | 0.15 | 98 | 1005.1 |
| 20260508070005 | 62 | 276 | 1.7 | 5.2 | 0.04 | 0.14 | 0.14 | 97 | 1004.5 |
| 20260508065506 | 62 | 289 | 2.6 | 6.1 | 0.04 | 0.14 | 0.14 | 97 | 1004.4 |
| 20260508065006 | 62 | 283 | 1.7 | 9.6 | 0.03 | 0.12 | 0.12 | 96 | 1004.4 |
| 20260508064505 | 62 | 297 | 2.6 | 9.6 | 0.03 | 0.11 | 0.11 | 96 | 1004.5 |
| 20260508064005 | 62 | 288 | 5.2 | 9.6 | 0.03 | 0.11 | 0.11 | 96 | 1004.7 |
| 20260508063506 | 62 | 284 | 4.3 | 7.8 | 0.02 | 0.10 | 0.10 | 96 | 1004.5 |
| 20260508063006 | 62 | 298 | 2.6 | 7.8 | 0.03 | 0.10 | 0.10 | 96 | 1004.4 |
| 20260508062506 | 62 | 298 | 3.5 | 9.6 | 0.05 | 0.10 | 0.10 | 96 | 1004.4 |
| 20260508062005 | 62 | 302 | 5.2 | 9.6 | 0.10 | 0.10 | 0.10 | 96 | 1004.5 |
| 20260508061507 | 62 | 300 | 5.2 | 9.6 | 0.10 | 0.10 | 0.10 | 96 | 1004.9 |
| 20260508061006 | 62 | 280 | 5.2 | 10.4 | 0.10 | 0.10 | 0.10 | 97 | 1004.6 |
| 20260508060506 | 62 | 293 | 3.5 | 12.2 | 0.09 | 0.09 | 0.09 | 97 | 1004.4 |
| 20260508060005 | 62 | 311 | 5.2 | 12.2 | 0.09 | 0.09 | 0.09 | 97 | 1004.3 |
| 20260508055505 | 62 | 285 | 1.7 | 6.1 | 0.09 | 0.09 | 0.09 | 97 | 1004.7 |
| 20260508055006 | 62 | 293 | 2.6 | 6.1 | 0.09 | 0.09 | 0.09 | 96 | 1004.8 |
| 20260508054506 | 62 | 299 | 2.6 | 5.2 | 0.08 | 0.08 | 0.08 | 94 | 1005.0 |
| 20260508054005 | 63 | 262 | 1.7 | 13.9 | 0.08 | 0.08 | 0.08 | 93 | 1005.0 |
| 20260508053505 | 63 | 265 | 2.6 | 13.9 | 0.08 | 0.08 | 0.08 | 91 | 1005.1 |
| 20260508053006 | 64 | 275 | 6.1 | 11.3 | 0.07 | 0.07 | 0.07 | 85 | 1005.6 |
| 20260508052506 | 65 | 272 | 5.2 | 10.4 | 0.03 | 0.03 | 0.03 | 81 | 1005.7 |
| 20260508052006 | 65 | 265 | 3.5 | 7.8 | 0.00 | 0.00 | 0.00 | 80 | 1004.5 |
| 20260508051505 | 66 | 260 | 5.2 | 7.8 | 0.00 | 0.00 | 0.00 | 79 | 1004.2 |
| 20260508051006 | 66 | 265 | 3.5 | 7.0 | 0.00 | 0.00 | 0.00 | 78 | 1004.4 |
| 20260508050506 | 66 | 262 | 3.5 | 6.1 | 0.00 | 0.00 | 0.00 | 77 | 1004.3 |
| 20260508050006 | 66 | 260 | 0.0 | 7.0 | 0.00 | 0.00 | 0.00 | 76 | 1003.9 |
| 20260508045505 | 67 | 264 | 4.3 | 7.8 | 0.00 | 0.00 | 0.00 | 75 | 1004.0 |
| 20260508045005 | 67 | 288 | 2.6 | 7.8 | 0.00 | 0.00 | 0.00 | 74 | 1003.9 |
| 20260508044506 | 67 | 279 | 4.3 | 7.0 | 0.00 | 0.00 | 0.00 | 74 | 1003.8 |
| 20260508044006 | 67 | 261 | 2.6 | 5.2 | 0.00 | 0.00 | 0.00 | 73 | 1004.1 |
| 20260508043505 | 68 | 267 | 2.6 | 7.8 | 0.00 | 0.00 | 0.00 | 73 | 1004.2 |
| 20260508043005 | 68 | 277 | 2.6 | 7.8 | 0.00 | 0.00 | 0.00 | 72 | 1004.3 |
| 20260508042506 | 69 | 299 | 3.5 | 7.0 | 0.00 | 0.00 | 0.00 | 70 | 1004.2 |
| 20260508042006 | 70 | 289 | 4.3 | 7.0 | 0.00 | 0.00 | 0.00 | 69 | 1004.1 |
| 20260508041505 | 70 | 296 | 4.3 | 13.9 | 0.00 | 0.00 | 0.00 | 66 | 1004.2 |
| 20260508041005 | 71 | 297 | 1.7 | 13.9 | 0.00 | 0.00 | 0.00 | 65 | 1003.7 |
| 20260508040506 | 72 | 250 | 5.2 | 7.8 | 0.00 | 0.00 | 0.00 | 65 | 1004.8 |
| 20260508040006 | 72 | 228 | 2.6 | 7.8 | 0.00 | 0.00 | 0.00 | 65 | 1004.2 |
| 20260508035506 | 72 | 275 | 2.6 | 7.0 | 0.00 | 0.00 | 0.00 | 65 | 1004.4 |
| 20260508035005 | 72 | 295 | 2.6 | 7.0 | 0.00 | 0.00 | 0.00 | 65 | 1004.1 |
| 20260508034506 | 72 | 300 | 3.5 | 7.8 | 0.00 | 0.00 | 0.00 | 64 | 1004.3 |
| 20260508034006 | 72 | 296 | 1.7 | 7.8 | 0.00 | 0.00 | 0.00 | 64 | 1004.2 |
| 20260508033506 | 72 | 298 | 4.3 | 8.7 | 0.00 | 0.00 | 0.00 | 64 | 1004.2 |
| 20260508033005 | 72 | 299 | 1.7 | 8.7 | 0.00 | 0.00 | 0.00 | 64 | 1004.3 |
| 20260508032505 | 72 | 289 | 3.5 | 6.1 | 0.00 | 0.00 | 0.00 | 63 | 1004.3 |
| 20260508032006 | 72 | 293 | 3.5 | 7.0 | 0.00 | 0.00 | 0.00 | 63 | 1004.1 |
| 20260508031506 | 72 | 273 | 3.5 | 7.8 | 0.00 | 0.00 | 0.00 | 63 | 1004.1 |
| 20260508031005 | 72 | 323 | 4.3 | 13.0 | 0.00 | 0.00 | 0.00 | 63 | 1004.3 |
| 20260508030505 | 72 | 347 | 6.1 | 13.0 | 0.00 | 0.00 | 0.00 | 63 | 1004.4 |
| 20260508030006 | 72 | 290 | 1.7 | 10.4 | 0.00 | 0.00 | 0.00 | 63 | 1004.4 |
| 20260508025506 | 72 | 263 | 5.2 | 7.8 | 0.00 | 0.00 | 0.00 | 63 | 1004.7 |
| 20260508025006 | 72 | 277 | 5.2 | 7.8 | 0.00 | 0.00 | 0.00 | 63 | 1004.7 |
| 20260508024505 | 72 | 302 | 2.6 | 5.2 | 0.00 | 0.00 | 0.00 | 63 | 1004.5 |
| 20260508024006 | 72 | 316 | 1.7 | 7.0 | 0.00 | 0.00 | 0.00 | 63 | 1004.3 |
| 20260508023506 | 72 | 336 | 4.3 | 7.8 | 0.00 | 0.00 | 0.00 | 63 | 1004.3 |
| 20260508023005 | 72 | 342 | 3.5 | 7.8 | 0.00 | 0.00 | 0.00 | 63 | 1004.3 |
| 20260508022505 | 72 | 342 | 3.5 | 7.8 | 0.00 | 0.00 | 0.00 | 63 | 1004.4 |
| 20260508022210 | 72 | 334 | 2.6 | 7.8 | 0.00 | 0.00 | 0.00 | 63 | 1004.3 |
| 20260508022005 | 72 | 318 | 3.5 | 7.8 | 0.00 | 0.00 | 0.00 | 63 | 1004.4 |
| 20260508021712 | 72 | 323 | 4.3 | 7.8 | 0.00 | 0.00 | 0.00 | 63 | 1004.5 |
| 20260508021506 | 72 | 319 | 0.9 | 7.8 | 0.00 | 0.00 | 0.00 | 63 | 1004.3 |
| 20260508021211 | 72 | 312 | 3.5 | 7.8 | 0.00 | 0.00 | 0.00 | 63 | 1004.6 |
| 20260508021006 | 72 | 315 | 3.5 | 5.2 | 0.00 | 0.00 | 0.00 | 63 | 1004.7 |
| 20260508020712 | 72 | 289 | 0.9 | 5.2 | 0.00 | 0.00 | 0.00 | 63 | 1004.5 |
| 20260508020506 | 72 | 290 | 3.5 | 7.0 | 0.00 | 0.00 | 0.00 | 63 | 1004.5 |
| 20260508020005 | 72 | 285 | 1.7 | 7.0 | 0.00 | 0.00 | 0.00 | 63 | 1004.8 |
| 20260508015505 | 72 | 284 | 4.3 | 7.0 | 0.00 | 0.00 | 0.00 | 63 | 1004.9 |
| 20260508015005 | 72 | 271 | 2.6 | 7.8 | 0.00 | 0.00 | 0.00 | 63 | 1004.9 |
| 20260508014506 | 72 | 277 | 2.6 | 7.8 | 0.00 | 0.00 | 0.00 | 63 | 1005.1 |
| 20260508014006 | 72 | 302 | 2.6 | 6.1 | 0.00 | 0.00 | 0.00 | 63 | 1005.1 |
| 20260508013711 | 72 | 277 | 2.6 | 7.0 | 0.00 | 0.00 | 0.00 | 63 | 1005.1 |
| 20260508013505 | 72 | 267 | 2.6 | 7.0 | 0.00 | 0.00 | 0.00 | 63 | 1005.1 |
| 20260508013211 | 72 | 250 | 1.7 | 7.0 | 0.00 | 0.00 | 0.00 | 63 | 1005.3 |
| 20260508013005 | 72 | 234 | 5.2 | 7.0 | 0.00 | 0.00 | 0.00 | 63 | 1005.3 |
| 20260508012712 | 72 | 286 | 3.5 | 7.0 | 0.00 | 0.00 | 0.00 | 63 | 1005.1 |
| 20260508012506 | 72 | 310 | 1.7 | 7.0 | 0.00 | 0.00 | 0.00 | 63 | 1005.1 |
| 20260508012006 | 72 | 320 | 0.9 | 7.0 | 0.00 | 0.00 | 0.00 | 63 | 1005.0 |
| 20260508011711 | 72 | 317 | 2.6 | 7.8 | 0.00 | 0.00 | 0.00 | 63 | 1005.2 |
| 20260508011505 | 72 | 317 | 3.5 | 7.8 | 0.00 | 0.00 | 0.00 | 63 | 1005.2 |
| 20260508011211 | 72 | 310 | 2.6 | 7.8 | 0.00 | 0.00 | 0.00 | 64 | 1005.2 |
| 20260508011007 | 72 | 298 | 2.6 | 7.8 | 0.00 | 0.00 | 0.00 | 64 | 1005.3 |
| 20260508010712 | 72 | 294 | 2.6 | 4.3 | 0.00 | 0.00 | 0.00 | 64 | 1005.2 |
| 20260508010506 | 72 | 293 | 0.9 | 9.6 | 0.00 | 0.00 | 0.00 | 64 | 1005.2 |
| 20260508010211 | 72 | 292 | 1.7 | 9.6 | 0.00 | 0.00 | 0.00 | 64 | 1005.1 |
| 20260508010006 | 72 | 290 | 2.6 | 9.6 | 0.00 | 0.00 | 0.00 | 64 | 1005.0 |
| 20260508005711 | 72 | 284 | 3.5 | 9.6 | 0.00 | 0.00 | 0.00 | 64 | 1005.1 |
| 20260508005505 | 72 | 273 | 7.0 | 9.6 | 0.00 | 0.00 | 0.00 | 64 | 1005.1 |
| 20260508005211 | 72 | 264 | 1.7 | 5.2 | 0.00 | 0.00 | 0.00 | 64 | 1005.1 |
| 20260508005005 | 72 | 268 | 1.7 | 5.2 | 0.00 | 0.00 | 0.00 | 64 | 1005.1 |
| 20260508004713 | 72 | 258 | 1.7 | 5.2 | 0.00 | 0.00 | 0.00 | 64 | 1005.2 |
| 20260508004506 | 72 | 280 | 2.6 | 5.2 | 0.00 | 0.00 | 0.00 | 64 | 1005.2 |
| 20260508004212 | 72 | 304 | 3.5 | 6.1 | 0.00 | 0.00 | 0.00 | 64 | 1005.2 |
| 20260508004006 | 72 | 289 | 1.7 | 6.1 | 0.00 | 0.00 | 0.00 | 64 | 1005.1 |
| 20260508003711 | 72 | 296 | 0.0 | 6.1 | 0.00 | 0.00 | 0.00 | 64 | 1005.2 |
| 20260508003505 | 72 | 289 | 1.7 | 6.1 | 0.00 | 0.00 | 0.00 | 64 | 1005.3 |
| 20260508003211 | 72 | 289 | 4.3 | 7.8 | 0.00 | 0.00 | 0.00 | 64 | 1005.0 |
| 20260508003006 | 72 | 275 | 0.0 | 7.8 | 0.00 | 0.00 | 0.00 | 64 | 1005.1 |
| 20260508002507 | 72 | 266 | 5.2 | 7.8 | 0.00 | 0.00 | 0.00 | 64 | 1005.2 |
| 20260508002212 | 72 | 257 | 0.9 | 4.3 | 0.00 | 0.00 | 0.00 | 64 | 1005.2 |
| 20260508002006 | 72 | 254 | 2.6 | 4.3 | 0.00 | 0.00 | 0.00 | 64 | 1005.2 |
| 20260508001505 | 72 | 256 | 1.7 | 5.2 | 0.00 | 0.00 | 0.00 | 64 | 1005.2 |
| 20260508001211 | 72 | 249 | 2.6 | 5.2 | 0.00 | 0.00 | 0.00 | 64 | 1005.2 |
| 20260508001005 | 72 | 253 | 2.6 | 5.2 | 0.00 | 0.00 | 0.00 | 64 | 1005.1 |
| 20260508000713 | 72 | 245 | 2.6 | 5.2 | 0.00 | 0.00 | 0.00 | 64 | 1005.2 |
| 20260508000507 | 72 | 259 | 3.5 | 5.2 | 0.00 | 0.00 | 0.00 | 64 | 1005.2 |
| 20260508000212 | 72 | 290 | 3.5 | 5.2 | 0.00 | 0.00 | 0.00 | 64 | 1005.1 |
| 20260508000006 | 72 | 300 | 0.0 | 4.3 | 0.00 | 0.00 | 0.00 | 63 | 1005.1 |
| 20260507235712 | 72 | 293 | 0.0 | 5.2 | 0.00 | 0.00 | 0.00 | 63 | 1005.2 |
| 20260507235505 | 72 | 284 | 1.7 | 5.2 | 0.00 | 0.00 | 0.00 | 63 | 1005.1 |
| 20260507235211 | 72 | 286 | 1.7 | 5.2 | 0.00 | 0.00 | 0.00 | 63 | 1005.2 |
| 20260507235005 | 72 | 288 | 0.9 | 5.2 | 0.00 | 0.00 | 0.00 | 63 | 1005.0 |
| 20260507234506 | 72 | 295 | 0.0 | 5.2 | 0.00 | 0.00 | 0.00 | 63 | 1005.1 |
| 20260507234212 | 72 | 295 | 2.6 | 5.2 | 0.00 | 0.00 | 0.00 | 63 | 1005.0 |
| 20260507234006 | 72 | 278 | 0.0 | 3.5 | 0.00 | 0.00 | 0.00 | 63 | 1005.1 |
| 20260507233712 | 72 | 284 | 0.9 | 3.5 | 0.00 | 0.00 | 0.00 | 63 | 1005.1 |
| 20260507233506 | 72 | 296 | 2.6 | 3.5 | 0.00 | 0.00 | 0.00 | 63 | 1004.9 |
| 20260507233005 | 72 | 271 | 1.7 | 6.1 | 0.00 | 0.00 | 0.00 | 63 | 1005.1 |
| 20260507232507 | 73 | 278 | 1.7 | 6.1 | 0.00 | 0.00 | 0.00 | 60 | 1005.0 |
| 20260507232006 | 73 | 321 | 0.9 | 6.1 | 0.00 | 0.00 | 0.00 | 60 | 1004.9 |
| 20260507231506 | 72 | 297 | 0.9 | 6.1 | 0.00 | 0.00 | 0.00 | 60 | 1004.7 |
| 20260507231211 | 73 | 265 | 0.0 | 3.5 | 0.00 | 0.00 | 0.00 | 60 | 1004.8 |
| 20260507231005 | 73 | 260 | 2.6 | 6.1 | 0.00 | 0.00 | 0.00 | 60 | 1005.0 |
| 20260507230505 | 73 | 255 | 0.9 | 6.1 | 0.00 | 0.00 | 0.00 | 60 | 1005.2 |
| 20260507230006 | 73 | 258 | 2.6 | 3.5 | 0.00 | 0.00 | 0.00 | 60 | 1005.1 |
| 20260507225712 | 73 | 246 | 0.9 | 3.5 | 0.00 | 0.00 | 0.00 | 60 | 1004.8 |
| 20260507225506 | 73 | 254 | 1.7 | 4.3 | 0.00 | 0.00 | 0.00 | 60 | 1005.1 |
| 20260507225006 | 73 | 273 | 2.6 | 5.2 | 0.00 | 0.00 | 0.00 | 59 | 1005.1 |
| 20260507224505 | 73 | 316 | 0.9 | 5.2 | 0.00 | 0.00 | 0.00 | 58 | 1005.0 |
| 20260507224212 | 73 | 304 | 1.7 | 5.2 | 0.00 | 0.00 | 0.00 | 58 | 1005.0 |
| 20260507224006 | 73 | 294 | 3.5 | 5.2 | 0.00 | 0.00 | 0.00 | 58 | 1004.8 |
| 20260507223712 | 73 | 305 | 0.0 | 2.6 | 0.00 | 0.00 | 0.00 | 58 | 1004.9 |
| 20260507223506 | 73 | 278 | 0.9 | 4.3 | 0.00 | 0.00 | 0.00 | 58 | 1005.1 |
| 20260507223006 | 74 | 296 | 0.0 | 4.3 | 0.00 | 0.00 | 0.00 | 57 | 1005.3 |
| 20260507222712 | 74 | 289 | 1.7 | 4.3 | 0.00 | 0.00 | 0.00 | 57 | 1005.2 |
| 20260507222505 | 74 | 315 | 2.6 | 5.2 | 0.00 | 0.00 | 0.00 | 57 | 1005.0 |
| 20260507222007 | 74 | 311 | 0.0 | 5.2 | 0.00 | 0.00 | 0.00 | 57 | 1005.1 |
| 20260507221712 | 74 | 313 | 4.3 | 5.2 | 0.00 | 0.00 | 0.00 | 57 | 1005.2 |
| 20260507221506 | 74 | 308 | 1.7 | 5.2 | 0.00 | 0.00 | 0.00 | 57 | 1005.2 |
| 20260507221211 | 74 | 311 | 0.0 | 5.2 | 0.00 | 0.00 | 0.00 | 56 | 1005.3 |
| 20260507221005 | 74 | 317 | 3.5 | 5.2 | 0.00 | 0.00 | 0.00 | 56 | 1005.1 |
| 20260507220711 | 74 | 301 | 0.9 | 5.2 | 0.00 | 0.00 | 0.00 | 55 | 1005.2 |
| 20260507220505 | 74 | 282 | 0.0 | 5.2 | 0.00 | 0.00 | 0.00 | 55 | 1005.2 |
| 20260507220006 | 75 | 259 | 2.6 | 5.2 | 0.00 | 0.00 | 0.00 | 55 | 1005.2 |
| 20260507215506 | 75 | 253 | 2.6 | 5.2 | 0.00 | 0.00 | 0.00 | 55 | 1005.1 |
| 20260507215006 | 74 | 288 | 2.6 | 5.2 | 0.00 | 0.00 | 0.00 | 55 | 1005.2 |
| 20260507214711 | 74 | 294 | 0.9 | 5.2 | 0.00 | 0.00 | 0.00 | 56 | 1005.2 |
| 20260507214505 | 74 | 294 | 3.5 | 5.2 | 0.00 | 0.00 | 0.00 | 56 | 1005.3 |
| 20260507214213 | 74 | 296 | 0.0 | 4.3 | 0.00 | 0.00 | 0.00 | 56 | 1005.3 |
| 20260507214007 | 74 | 298 | 2.6 | 4.3 | 0.00 | 0.00 | 0.00 | 56 | 1005.1 |
| 20260507213506 | 74 | 298 | 0.0 | 2.6 | 0.00 | 0.00 | 0.00 | 57 | 1005.2 |
| 20260507213212 | 74 | 305 | 0.9 | 4.3 | 0.00 | 0.00 | 0.00 | 57 | 1005.3 |
| 20260507213005 | 75 | 305 | 0.0 | 4.3 | 0.00 | 0.00 | 0.00 | 57 | 1005.2 |
| 20260507212711 | 75 | 298 | 0.0 | 4.3 | 0.00 | 0.00 | 0.00 | 56 | 1005.3 |
| 20260507212505 | 75 | 297 | 0.0 | 4.3 | 0.00 | 0.00 | 0.00 | 56 | 1005.3 |
| 20260507212006 | 74 | 238 | 0.9 | 3.5 | 0.00 | 0.00 | 0.00 | 57 | 1005.3 |
| 20260507211712 | 75 | 278 | 2.6 | 3.5 | 0.00 | 0.00 | 0.00 | 58 | 1005.3 |
| 20260507211506 | 75 | 282 | 1.7 | 3.5 | 0.00 | 0.00 | 0.00 | 57 | 1005.4 |
| 20260507211005 | 75 | 304 | 1.7 | 3.5 | 0.00 | 0.00 | 0.00 | 58 | 1005.4 |
| 20260507210505 | 75 | 309 | 0.9 | 2.6 | 0.00 | 0.00 | 0.00 | 58 | 1005.5 |
| 20260507210006 | 75 | 308 | 0.9 | 2.6 | 0.00 | 0.00 | 0.00 | 58 | 1005.6 |
| 20260507205506 | 75 | 289 | 0.0 | 5.2 | 0.00 | 0.00 | 0.00 | 57 | 1005.6 |
| 20260507205211 | 75 | 318 | 0.9 | 8.7 | 0.00 | 0.00 | 0.00 | 57 | 1005.5 |
| 20260507205006 | 75 | 309 | 0.0 | 8.7 | 0.00 | 0.00 | 0.00 | 57 | 1005.4 |
| 20260507204712 | 76 | 338 | 3.5 | 8.7 | 0.00 | 0.00 | 0.00 | 56 | 1005.5 |
| 20260507204505 | 76 | 336 | 0.9 | 8.7 | 0.00 | 0.00 | 0.00 | 56 | 1005.5 |
| 20260507204006 | 76 | 330 | 1.7 | 6.1 | 0.00 | 0.00 | 0.00 | 56 | 1005.4 |
| 20260507203713 | 76 | 339 | 3.5 | 6.1 | 0.00 | 0.00 | 0.00 | 56 | 1005.5 |
| 20260507203506 | 76 | 348 | 1.7 | 6.1 | 0.00 | 0.00 | 0.00 | 56 | 1005.5 |
| 20260507203211 | 76 | 323 | 1.7 | 6.1 | 0.00 | 0.00 | 0.00 | 56 | 1005.5 |
| 20260507203005 | 76 | 317 | 5.2 | 6.1 | 0.00 | 0.00 | 0.00 | 56 | 1005.4 |
| 20260507202711 | 76 | 308 | 0.9 | 6.1 | 0.00 | 0.00 | 0.00 | 55 | 1005.4 |
| 20260507202505 | 77 | 303 | 3.5 | 6.1 | 0.00 | 0.00 | 0.00 | 55 | 1005.4 |
| 20260507202211 | 77 | 314 | 3.5 | 6.1 | 0.00 | 0.00 | 0.00 | 54 | 1005.4 |
| 20260507202007 | 77 | 306 | 1.7 | 2.6 | 0.00 | 0.00 | 0.00 | 54 | 1005.4 |
| 20260507201713 | 78 | 306 | 0.0 | 2.6 | 0.00 | 0.00 | 0.00 | 54 | 1005.4 |
| 20260507201506 | 78 | 326 | 0.9 | 5.2 | 0.00 | 0.00 | 0.00 | 54 | 1005.4 |
| 20260507201211 | 78 | 300 | 0.0 | 8.7 | 0.00 | 0.00 | 0.00 | 54 | 1005.2 |
| 20260507201006 | 78 | 303 | 0.0 | 8.7 | 0.00 | 0.00 | 0.00 | 54 | 1005.2 |
| 20260507200711 | 78 | 290 | 2.6 | 8.7 | 0.00 | 0.00 | 0.00 | 53 | 1005.4 |
| 20260507200505 | 78 | 274 | 7.0 | 8.7 | 0.00 | 0.00 | 0.00 | 52 | 1005.3 |
| 20260507200210 | 79 | 275 | 2.6 | 6.1 | 0.00 | 0.00 | 0.00 | 52 | 1005.3 |
| 20260507200007 | 79 | 253 | 1.7 | 6.1 | 0.00 | 0.00 | 0.00 | 51 | 1005.3 |
| 20260507195712 | 80 | 258 | 2.6 | 7.8 | 0.00 | 0.00 | 0.00 | 51 | 1005.3 |
| 20260507195506 | 80 | 256 | 4.3 | 7.8 | 0.00 | 0.00 | 0.00 | 51 | 1005.3 |
| 20260507195212 | 81 | 252 | 2.6 | 7.8 | 0.00 | 0.00 | 0.00 | 50 | 1005.4 |
| 20260507195006 | 81 | 261 | 3.5 | 7.8 | 0.00 | 0.00 | 0.00 | 50 | 1005.3 |
| 20260507194711 | 81 | 269 | 3.5 | 7.0 | 0.00 | 0.00 | 0.00 | 50 | 1005.5 |
| 20260507194507 | 81 | 290 | 5.2 | 7.0 | 0.00 | 0.00 | 0.00 | 50 | 1005.3 |
| 20260507194213 | 81 | 313 | 3.5 | 7.0 | 0.00 | 0.00 | 0.00 | 51 | 1005.4 |
| 20260507194006 | 80 | 310 | 1.7 | 7.0 | 0.00 | 0.00 | 0.00 | 51 | 1005.5 |
| 20260507193711 | 79 | 290 | 4.3 | 7.8 | 0.00 | 0.00 | 0.00 | 52 | 1005.6 |
| 20260507193506 | 79 | 277 | 2.6 | 7.8 | 0.00 | 0.00 | 0.00 | 52 | 1005.4 |
| 20260507193211 | 78 | 269 | 2.6 | 7.8 | 0.00 | 0.00 | 0.00 | 53 | 1005.5 |
| 20260507193005 | 78 | 263 | 4.3 | 10.4 | 0.00 | 0.00 | 0.00 | 53 | 1005.4 |
| 20260507192711 | 77 | 242 | 3.5 | 10.4 | 0.00 | 0.00 | 0.00 | 53 | 1005.6 |
| 20260507192505 | 77 | 250 | 2.6 | 10.4 | 0.00 | 0.00 | 0.00 | 53 | 1005.5 |
| 20260507192007 | 77 | 259 | 3.5 | 10.4 | 0.00 | 0.00 | 0.00 | 53 | 1005.4 |
| 20260507191712 | 77 | 286 | 3.5 | 10.4 | 0.00 | 0.00 | 0.00 | 52 | 1005.3 |
| 20260507191506 | 78 | 300 | 4.3 | 10.4 | 0.00 | 0.00 | 0.00 | 52 | 1005.3 |
| 20260507191005 | 78 | 317 | 2.6 | 7.8 | 0.00 | 0.00 | 0.00 | 52 | 1005.4 |
| 20260507190505 | 78 | 288 | 2.6 | 14.8 | 0.00 | 0.00 | 0.00 | 52 | 1005.3 |
| 20260507190213 | 78 | 264 | 4.3 | 14.8 | 0.00 | 0.00 | 0.00 | 52 | 1005.4 |
| 20260507190007 | 78 | 263 | 3.5 | 14.8 | 0.00 | 0.00 | 0.00 | 51 | 1005.3 |
| 20260507185714 | 78 | 252 | 9.6 | 14.8 | 0.00 | 0.00 | 0.00 | 50 | 1005.3 |
| 20260507185506 | 78 | 248 | 7.0 | 13.9 | 0.00 | 0.00 | 0.00 | 50 | 1005.4 |
| 20260507185211 | 78 | 270 | 1.7 | 13.0 | 0.00 | 0.00 | 0.00 | 50 | 1005.1 |
| 20260507185006 | 78 | 268 | 3.5 | 13.0 | 0.00 | 0.00 | 0.00 | 50 | 1004.9 |
| 20260507184712 | 78 | 230 | 7.0 | 19.1 | 0.00 | 0.00 | 0.00 | 50 | 1005.1 |
| 20260507184505 | 78 | 257 | 4.3 | 19.1 | 0.00 | 0.00 | 0.00 | 50 | 1005.1 |
| 20260507184211 | 79 | 243 | 7.8 | 19.1 | 0.00 | 0.00 | 0.00 | 50 | 1005.2 |
| 20260507184007 | 79 | 226 | 6.1 | 19.1 | 0.00 | 0.00 | 0.00 | 50 | 1005.0 |
| 20260507183712 | 78 | 277 | 4.3 | 13.0 | 0.00 | 0.00 | 0.00 | 50 | 1005.5 |
| 20260507183506 | 78 | 265 | 7.8 | 13.0 | 0.00 | 0.00 | 0.00 | 50 | 1005.1 |
| 20260507183212 | 78 | 288 | 7.8 | 16.5 | 0.00 | 0.00 | 0.00 | 50 | 1004.9 |
| 20260507183006 | 78 | 301 | 5.2 | 16.5 | 0.00 | 0.00 | 0.00 | 50 | 1005.0 |
| 20260507182712 | 78 | 310 | 6.1 | 18.2 | 0.00 | 0.00 | 0.00 | 50 | 1004.9 |
| 20260507182506 | 78 | 320 | 5.2 | 19.1 | 0.00 | 0.00 | 0.00 | 50 | 1004.9 |
| 20260507182211 | 79 | 302 | 5.2 | 19.1 | 0.00 | 0.00 | 0.00 | 49 | 1004.9 |
| 20260507182005 | 79 | 305 | 5.2 | 19.1 | 0.00 | 0.00 | 0.00 | 48 | 1004.8 |
| 20260507181712 | 79 | 269 | 10.4 | 19.1 | 0.00 | 0.00 | 0.00 | 46 | 1004.9 |
| 20260507181506 | 80 | 284 | 11.3 | 19.1 | 0.00 | 0.00 | 0.00 | 47 | 1005.0 |
| 20260507181212 | 80 | 270 | 9.6 | 16.5 | 0.00 | 0.00 | 0.00 | 46 | 1005.3 |
| 20260507181006 | 80 | 268 | 4.3 | 16.5 | 0.00 | 0.00 | 0.00 | 45 | 1005.0 |
| 20260507180506 | 82 | 1 | 7.8 | 13.0 | 0.00 | 0.00 | 0.00 | 41 | 1005.1 |
| 20260507180211 | 82 | 351 | 6.1 | 13.0 | 0.00 | 0.00 | 0.00 | 41 | 1005.1 |
| 20260507180007 | 82 | 1 | 2.6 | 13.0 | 0.00 | 0.00 | 0.00 | 42 | 1005.0 |
| 20260507175712 | 82 | 328 | 7.8 | 13.0 | 0.00 | 0.00 | 0.00 | 42 | 1005.5 |
| 20260507175507 | 81 | 326 | 10.4 | 13.0 | 0.00 | 0.00 | 0.00 | 46 | 1005.3 |
| 20260507175212 | 80 | 313 | 6.1 | 13.0 | 0.00 | 0.00 | 0.00 | 47 | 1005.3 |
| 20260507175006 | 80 | 301 | 4.3 | 13.0 | 0.00 | 0.00 | 0.00 | 47 | 1005.2 |
| 20260507174711 | 81 | 284 | 3.5 | 13.0 | 0.00 | 0.00 | 0.00 | 47 | 1005.4 |
| 20260507174505 | 81 | 270 | 7.8 | 13.0 | 0.00 | 0.00 | 0.00 | 46 | 1005.5 |
| 20260507174213 | 81 | 233 | 6.1 | 13.0 | 0.00 | 0.00 | 0.00 | 47 | 1005.6 |
| 20260507174007 | 80 | 336 | 3.5 | 12.2 | 0.00 | 0.00 | 0.00 | 50 | 1005.4 |
| 20260507173506 | 80 | 332 | 2.6 | 12.2 | 0.00 | 0.00 | 0.00 | 50 | 1005.2 |
| 20260507173212 | 80 | 308 | 7.0 | 13.9 | 0.00 | 0.00 | 0.00 | 50 | 1005.3 |
| 20260507173006 | 79 | 298 | 5.2 | 13.9 | 0.00 | 0.00 | 0.00 | 50 | 1005.0 |
| 20260507172711 | 79 | 283 | 5.2 | 13.9 | 0.00 | 0.00 | 0.00 | 50 | 1005.2 |
| 20260507172505 | 79 | 285 | 4.3 | 13.9 | 0.00 | 0.00 | 0.00 | 50 | 1005.4 |
| 20260507172007 | 79 | 293 | 5.2 | 10.4 | 0.00 | 0.00 | 0.00 | 50 | 1005.5 |
| 20260507171713 | 79 | 307 | 2.6 | 10.4 | 0.00 | 0.00 | 0.00 | 50 | 1005.3 |
| 20260507171506 | 79 | 299 | 2.6 | 10.4 | 0.00 | 0.00 | 0.00 | 50 | 1005.5 |
| 20260507171211 | 80 | 296 | 7.8 | 10.4 | 0.00 | 0.00 | 0.00 | 49 | 1005.4 |
| 20260507171005 | 80 | 291 | 4.3 | 10.4 | 0.00 | 0.00 | 0.00 | 48 | 1005.4 |
| 20260507170711 | 80 | 293 | 6.1 | 10.4 | 0.00 | 0.00 | 0.00 | 47 | 1005.4 |
| 20260507170505 | 80 | 322 | 3.5 | 11.3 | 0.00 | 0.00 | 0.00 | 47 | 1005.4 |
| 20260507170212 | 80 | 350 | 3.5 | 11.3 | 0.00 | 0.00 | 0.00 | 47 | 1005.6 |
| 20260507170007 | 80 | 310 | 5.2 | 16.5 | 0.00 | 0.00 | 0.00 | 48 | 1005.6 |
| 20260507165506 | 80 | 288 | 7.8 | 16.5 | 0.00 | 0.00 | 0.00 | 47 | 1005.6 |
| 20260507165211 | 80 | 277 | 8.7 | 16.5 | 0.00 | 0.00 | 0.00 | 46 | 1005.6 |
| 20260507165006 | 80 | 308 | 4.3 | 20.9 | 0.00 | 0.00 | 0.00 | 48 | 1005.9 |
| 20260507164711 | 80 | 311 | 7.8 | 20.9 | 0.00 | 0.00 | 0.00 | 48 | 1005.8 |
| 20260507164507 | 80 | 312 | 5.2 | 20.9 | 0.00 | 0.00 | 0.00 | 47 | 1005.9 |
| 20260507164212 | 80 | 309 | 5.2 | 20.9 | 0.00 | 0.00 | 0.00 | 47 | 1005.7 |
| 20260507164007 | 80 | 294 | 7.8 | 13.9 | 0.00 | 0.00 | 0.00 | 48 | 1006.0 |
| 20260507163506 | 80 | 294 | 5.2 | 11.3 | 0.00 | 0.00 | 0.00 | 49 | 1006.1 |
| 20260507163212 | 80 | 281 | 5.2 | 13.0 | 0.00 | 0.00 | 0.00 | 50 | 1005.8 |
| 20260507163006 | 80 | 282 | 5.2 | 21.7 | 0.00 | 0.00 | 0.00 | 50 | 1006.1 |
| 20260507162711 | 80 | 273 | 5.2 | 21.7 | 0.00 | 0.00 | 0.00 | 49 | 1006.4 |
| 20260507162505 | 80 | 268 | 7.8 | 21.7 | 0.00 | 0.00 | 0.00 | 48 | 1006.1 |
| 20260507162212 | 80 | 276 | 5.2 | 21.7 | 0.00 | 0.00 | 0.00 | 49 | 1006.0 |
| 20260507162007 | 80 | 276 | 7.8 | 19.1 | 0.00 | 0.00 | 0.00 | 49 | 1006.2 |
| 20260507161714 | 80 | 263 | 7.8 | 21.7 | 0.00 | 0.00 | 0.00 | 48 | 1006.3 |
| 20260507161506 | 80 | 272 | 6.1 | 21.7 | 0.00 | 0.00 | 0.00 | 48 | 1006.4 |
| 20260507161211 | 80 | 277 | 7.0 | 21.7 | 0.00 | 0.00 | 0.00 | 46 | 1006.8 |
| 20260507161006 | 80 | 279 | 10.4 | 21.7 | 0.00 | 0.00 | 0.00 | 45 | 1006.7 |
| 20260507160507 | 82 | 296 | 7.8 | 15.6 | 0.00 | 0.00 | 0.00 | 43 | 1006.6 |
| 20260507160213 | 82 | 313 | 3.5 | 15.6 | 0.00 | 0.00 | 0.00 | 44 | 1006.5 |
| 20260507160006 | 82 | 307 | 2.6 | 15.6 | 0.00 | 0.00 | 0.00 | 44 | 1006.3 |
| 20260507155506 | 82 | 298 | 5.2 | 13.9 | 0.00 | 0.00 | 0.00 | 44 | 1006.7 |
| 20260507155212 | 81 | 282 | 7.8 | 14.8 | 0.00 | 0.00 | 0.00 | 50 | 1006.4 |
| 20260507155006 | 81 | 276 | 9.6 | 14.8 | 0.00 | 0.00 | 0.00 | 50 | 1006.5 |
| 20260507154507 | 81 | 281 | 7.8 | 16.5 | 0.00 | 0.00 | 0.00 | 51 | 1006.6 |
| 20260507154008 | 80 | 313 | 9.6 | 16.5 | 0.00 | 0.00 | 0.00 | 52 | 1006.5 |
| 20260507153506 | 80 | 317 | 5.2 | 14.8 | 0.00 | 0.00 | 0.00 | 54 | 1006.8 |
| 20260507153211 | 81 | 329 | 5.2 | 9.6 | 0.00 | 0.00 | 0.00 | 55 | 1006.9 |
| 20260507153005 | 81 | 331 | 5.2 | 10.4 | 0.00 | 0.00 | 0.00 | 55 | 1006.7 |
| 20260507152713 | 81 | 331 | 3.5 | 10.4 | 0.00 | 0.00 | 0.00 | 56 | 1006.9 |
| 20260507152507 | 81 | 328 | 4.3 | 10.4 | 0.00 | 0.00 | 0.00 | 56 | 1006.8 |
| 20260507152212 | 81 | 318 | 5.2 | 10.4 | 0.00 | 0.00 | 0.00 | 55 | 1007.0 |
| 20260507152006 | 81 | 292 | 2.6 | 11.3 | 0.00 | 0.00 | 0.00 | 55 | 1007.1 |
| 20260507151506 | 80 | 289 | 3.5 | 11.3 | 0.00 | 0.00 | 0.00 | 56 | 1007.3 |
| 20260507151212 | 80 | 285 | 6.1 | 14.8 | 0.00 | 0.00 | 0.00 | 55 | 1007.2 |
| 20260507151007 | 80 | 287 | 7.0 | 14.8 | 0.00 | 0.00 | 0.00 | 55 | 1007.6 |
| 20260507150507 | 80 | 289 | 5.2 | 15.6 | 0.00 | 0.00 | 0.00 | 56 | 1007.4 |
| 20260507150213 | 80 | 289 | 7.0 | 15.6 | 0.00 | 0.00 | 0.00 | 56 | 1007.4 |
| 20260507150006 | 80 | 311 | 5.2 | 15.6 | 0.00 | 0.00 | 0.00 | 57 | 1007.5 |
| 20260507145712 | 80 | 315 | 5.2 | 15.6 | 0.00 | 0.00 | 0.00 | 56 | 1007.6 |
| 20260507145506 | 80 | 321 | 10.4 | 15.6 | 0.00 | 0.00 | 0.00 | 56 | 1007.7 |
| 20260507145211 | 79 | 338 | 2.6 | 12.2 | 0.00 | 0.00 | 0.00 | 60 | 1007.9 |
| 20260507145005 | 79 | 308 | 2.6 | 12.2 | 0.00 | 0.00 | 0.00 | 60 | 1007.7 |
| 20260507144711 | 79 | 281 | 6.1 | 12.2 | 0.00 | 0.00 | 0.00 | 59 | 1007.7 |
| 20260507144507 | 79 | 270 | 5.2 | 10.4 | 0.00 | 0.00 | 0.00 | 60 | 1008.1 |
| 20260507144006 | 78 | 285 | 2.6 | 12.2 | 0.00 | 0.00 | 0.00 | 60 | 1008.2 |
| 20260507143712 | 78 | 314 | 5.2 | 12.2 | 0.00 | 0.00 | 0.00 | 61 | 1008.2 |
| 20260507143506 | 77 | 319 | 4.3 | 12.2 | 0.00 | 0.00 | 0.00 | 61 | 1008.6 |
| 20260507143212 | 77 | 331 | 10.4 | 12.2 | 0.00 | 0.00 | 0.00 | 61 | 1008.8 |
| 20260507143006 | 77 | 335 | 5.2 | 10.4 | 0.00 | 0.00 | 0.00 | 62 | 1008.6 |
| 20260507142711 | 76 | 309 | 5.2 | 10.4 | 0.00 | 0.00 | 0.00 | 63 | 1008.7 |
| 20260507142505 | 76 | 327 | 6.1 | 10.4 | 0.00 | 0.00 | 0.00 | 64 | 1008.7 |
| 20260507142212 | 75 | 339 | 5.2 | 13.0 | 0.00 | 0.00 | 0.00 | 64 | 1008.8 |
| 20260507142007 | 74 | 340 | 3.5 | 13.0 | 0.00 | 0.00 | 0.00 | 64 | 1009.0 |
| 20260507141713 | 74 | 358 | 5.2 | 13.0 | 0.00 | 0.00 | 0.00 | 64 | 1008.9 |
| 20260507141506 | 74 | 4 | 3.5 | 13.0 | 0.00 | 0.00 | 0.00 | 65 | 1009.2 |
| 20260507141211 | 74 | 338 | 2.6 | 8.7 | 0.00 | 0.00 | 0.00 | 66 | 1009.0 |
| 20260507141007 | 74 | 313 | 2.6 | 13.0 | 0.00 | 0.00 | 0.00 | 65 | 1008.9 |
| 20260507140711 | 74 | 281 | 3.5 | 13.0 | 0.00 | 0.00 | 0.00 | 66 | 1009.1 |
| 20260507140505 | 74 | 269 | 2.6 | 13.0 | 0.00 | 0.00 | 0.00 | 66 | 1009.0 |
| 20260507140213 | 74 | 236 | 4.3 | 13.0 | 0.00 | 0.00 | 0.00 | 65 | 1009.1 |
| 20260507140007 | 74 | 269 | 9.6 | 13.0 | 0.00 | 0.00 | 0.00 | 65 | 1009.4 |
| 20260507135712 | 74 | 243 | 2.6 | 10.4 | 0.00 | 0.00 | 0.00 | 65 | 1009.3 |
| 20260507135506 | 74 | 232 | 2.6 | 10.4 | 0.00 | 0.00 | 0.00 | 65 | 1009.5 |
| 20260507135211 | 74 | 251 | 6.1 | 9.6 | 0.00 | 0.00 | 0.00 | 65 | 1009.6 |
| 20260507135006 | 74 | 255 | 5.2 | 13.9 | 0.00 | 0.00 | 0.00 | 65 | 1009.8 |
| 20260507134507 | 74 | 281 | 4.3 | 13.9 | 0.00 | 0.00 | 0.00 | 66 | 1009.9 |
| 20260507134213 | 74 | 299 | 2.6 | 13.9 | 0.00 | 0.00 | 0.00 | 67 | 1009.8 |
| 20260507134007 | 73 | 318 | 6.1 | 10.4 | 0.00 | 0.00 | 0.00 | 67 | 1009.9 |
| 20260507133712 | 73 | 312 | 5.2 | 10.4 | 0.00 | 0.00 | 0.00 | 68 | 1010.0 |
| 20260507133506 | 73 | 338 | 3.5 | 8.7 | 0.00 | 0.00 | 0.00 | 69 | 1010.1 |
| 20260507133212 | 73 | 310 | 6.1 | 8.7 | 0.00 | 0.00 | 0.00 | 68 | 1010.2 |
| 20260507133005 | 73 | 292 | 4.3 | 8.7 | 0.00 | 0.00 | 0.00 | 69 | 1010.0 |
| 20260507132711 | 72 | 321 | 2.6 | 12.2 | 0.00 | 0.00 | 0.00 | 69 | 1010.1 |
| 20260507132507 | 72 | 312 | 1.7 | 12.2 | 0.00 | 0.00 | 0.00 | 69 | 1010.3 |
| 20260507132215 | 73 | 319 | 5.2 | 12.2 | 0.00 | 0.00 | 0.00 | 69 | 1010.1 |
| 20260507132007 | 73 | 321 | 2.6 | 12.2 | 0.00 | 0.00 | 0.00 | 70 | 1010.2 |
| 20260507131506 | 73 | 326 | 3.5 | 7.8 | 0.00 | 0.00 | 0.00 | 70 | 1010.3 |
| 20260507131005 | 72 | 298 | 4.3 | 9.6 | 0.00 | 0.00 | 0.00 | 70 | 1010.4 |
| 20260507130712 | 72 | 300 | 2.6 | 9.6 | 0.00 | 0.00 | 0.00 | 70 | 1010.3 |
| 20260507130507 | 72 | 299 | 3.5 | 11.3 | 0.00 | 0.00 | 0.00 | 70 | 1010.5 |
| 20260507130213 | 72 | 304 | 3.5 | 11.3 | 0.00 | 0.00 | 0.00 | 70 | 1010.3 |
| 20260507130006 | 72 | 319 | 5.2 | 11.3 | 0.00 | 0.00 | 0.00 | 70 | 1010.5 |
| 20260507125712 | 73 | 325 | 8.7 | 11.3 | 0.00 | 0.00 | 0.00 | 69 | 1010.3 |
| 20260507125506 | 73 | 322 | 2.6 | 7.0 | 0.00 | 0.00 | 0.00 | 70 | 1010.5 |
| 20260507125213 | 73 | 321 | 4.3 | 7.8 | 0.00 | 0.00 | 0.00 | 70 | 1010.5 |
| 20260507125006 | 73 | 309 | 3.5 | 7.8 | 0.00 | 0.00 | 0.00 | 70 | 1010.5 |
| 20260507124711 | 73 | 303 | 2.6 | 7.8 | 0.00 | 0.00 | 0.00 | 70 | 1010.7 |
| 20260507124507 | 73 | 308 | 5.2 | 7.8 | 0.00 | 0.00 | 0.00 | 70 | 1010.5 |
| 20260507124212 | 72 | 304 | 2.6 | 6.1 | 0.00 | 0.00 | 0.00 | 70 | 1010.6 |
| 20260507124006 | 72 | 302 | 3.5 | 6.1 | 0.00 | 0.00 | 0.00 | 73 | 1010.6 |
| 20260507123712 | 72 | 307 | 1.7 | 9.6 | 0.00 | 0.00 | 0.00 | 73 | 1010.6 |
| 20260507123506 | 72 | 303 | 3.5 | 9.6 | 0.00 | 0.00 | 0.00 | 73 | 1010.5 |
| 20260507123211 | 72 | 304 | 2.6 | 9.6 | 0.00 | 0.00 | 0.00 | 73 | 1010.7 |
| 20260507123007 | 71 | 301 | 4.3 | 9.6 | 0.00 | 0.00 | 0.00 | 73 | 1010.6 |
| 20260507122507 | 71 | 265 | 2.6 | 9.6 | 0.00 | 0.00 | 0.00 | 74 | 1010.8 |
| 20260507122212 | 71 | 272 | 2.6 | 9.6 | 0.00 | 0.00 | 0.00 | 74 | 1010.6 |
| 20260507122006 | 71 | 282 | 2.6 | 9.6 | 0.00 | 0.00 | 0.00 | 74 | 1010.8 |
| 20260507121506 | 71 | 297 | 2.6 | 7.8 | 0.00 | 0.00 | 0.00 | 74 | 1010.8 |
| 20260507121211 | 71 | 292 | 2.6 | 7.8 | 0.00 | 0.00 | 0.00 | 74 | 1011.0 |
| 20260507121005 | 71 | 295 | 2.6 | 6.1 | 0.00 | 0.00 | 0.00 | 74 | 1010.8 |
| 20260507120507 | 71 | 293 | 0.9 | 6.1 | 0.00 | 0.00 | 0.00 | 74 | 1010.9 |
| 20260507120212 | 71 | 301 | 3.5 | 6.1 | 0.00 | 0.00 | 0.00 | 74 | 1010.8 |
| 20260507120006 | 71 | 294 | 2.6 | 9.6 | 0.00 | 0.00 | 0.00 | 74 | 1010.8 |
| 20260507115712 | 71 | 309 | 2.6 | 9.6 | 0.00 | 0.00 | 0.00 | 74 | 1010.9 |
| 20260507115506 | 71 | 328 | 2.6 | 9.6 | 0.00 | 0.00 | 0.00 | 74 | 1010.9 |
| 20260507115211 | 71 | 272 | 3.5 | 9.6 | 0.00 | 0.00 | 0.00 | 74 | 1011.0 |
| 20260507115006 | 71 | 218 | 2.6 | 7.8 | 0.00 | 0.00 | 0.00 | 74 | 1010.9 |
| 20260507114714 | 71 | 247 | 3.5 | 7.8 | 0.00 | 0.00 | 0.00 | 74 | 1010.7 |
| 20260507114506 | 70 | 251 | 4.3 | 8.7 | 0.00 | 0.00 | 0.00 | 75 | 1010.6 |
| 20260507114212 | 70 | 274 | 2.6 | 8.7 | 0.00 | 0.00 | 0.00 | 75 | 1010.7 |
| 20260507114006 | 71 | 273 | 5.2 | 8.7 | 0.00 | 0.00 | 0.00 | 75 | 1010.7 |
| 20260507113712 | 71 | 277 | 4.3 | 8.7 | 0.00 | 0.00 | 0.00 | 75 | 1010.7 |
| 20260507113506 | 71 | 288 | 2.6 | 7.0 | 0.00 | 0.00 | 0.00 | 75 | 1010.8 |
| 20260507113211 | 71 | 306 | 3.5 | 7.8 | 0.00 | 0.00 | 0.00 | 75 | 1010.7 |
| 20260507113007 | 71 | 336 | 3.5 | 8.7 | 0.00 | 0.00 | 0.00 | 75 | 1010.7 |
| 20260507112712 | 71 | 315 | 2.6 | 8.7 | 0.00 | 0.00 | 0.00 | 75 | 1010.8 |
| 20260507112507 | 71 | 308 | 2.6 | 8.7 | 0.00 | 0.00 | 0.00 | 75 | 1010.6 |
| 20260507112212 | 71 | 291 | 5.2 | 8.7 | 0.00 | 0.00 | 0.00 | 75 | 1010.6 |
| 20260507112006 | 70 | 272 | 5.2 | 7.8 | 0.00 | 0.00 | 0.00 | 76 | 1010.6 |
| 20260507111714 | 70 | 268 | 1.7 | 7.0 | 0.00 | 0.00 | 0.00 | 76 | 1010.6 |
| 20260507111506 | 70 | 268 | 4.3 | 7.0 | 0.00 | 0.00 | 0.00 | 77 | 1010.6 |
| 20260507111213 | 70 | 282 | 5.2 | 7.0 | 0.00 | 0.00 | 0.00 | 77 | 1010.8 |
| 20260507111007 | 70 | 295 | 3.5 | 5.2 | 0.00 | 0.00 | 0.00 | 77 | 1010.8 |
| 20260507110712 | 69 | 295 | 0.9 | 5.2 | 0.00 | 0.00 | 0.00 | 78 | 1010.8 |
| 20260507110506 | 69 | 284 | 1.7 | 8.7 | 0.00 | 0.00 | 0.00 | 78 | 1010.9 |
| 20260507110212 | 69 | 278 | 2.6 | 8.7 | 0.00 | 0.00 | 0.00 | 78 | 1011.1 |
| 20260507110006 | 69 | 272 | 2.6 | 8.7 | 0.00 | 0.00 | 0.00 | 78 | 1011.0 |
| 20260507105711 | 69 | 264 | 2.6 | 8.7 | 0.00 | 0.00 | 0.00 | 78 | 1011.0 |
| 20260507105505 | 69 | 262 | 5.2 | 8.7 | 0.00 | 0.00 | 0.00 | 78 | 1011.1 |
| 20260507105213 | 69 | 257 | 2.6 | 6.1 | 0.00 | 0.00 | 0.00 | 78 | 1011.1 |
| 20260507105007 | 69 | 265 | 2.6 | 8.7 | 0.00 | 0.00 | 0.00 | 78 | 1010.9 |
| 20260507104506 | 69 | 287 | 2.6 | 8.7 | 0.00 | 0.00 | 0.00 | 78 | 1011.2 |
| 20260507104005 | 69 | 305 | 3.5 | 7.0 | 0.00 | 0.00 | 0.00 | 78 | 1011.0 |
| 20260507103507 | 69 | 276 | 1.7 | 8.7 | 0.00 | 0.00 | 0.00 | 77 | 1010.9 |
| 20260507103007 | 69 | 276 | 2.6 | 8.7 | 0.00 | 0.00 | 0.00 | 78 | 1010.9 |
| 20260507102506 | 69 | 283 | 1.7 | 8.7 | 0.00 | 0.00 | 0.00 | 78 | 1011.1 |
| 20260507102007 | 69 | 271 | 5.2 | 10.4 | 0.00 | 0.00 | 0.00 | 78 | 1010.9 |
| 20260507101507 | 69 | 282 | 5.2 | 10.4 | 0.00 | 0.00 | 0.00 | 78 | 1011.1 |
| 20260507101006 | 69 | 300 | 3.5 | 8.7 | 0.00 | 0.00 | 0.00 | 79 | 1011.1 |
| 20260507100506 | 69 | 299 | 5.2 | 7.8 | 0.00 | 0.00 | 0.00 | 80 | 1011.0 |
| 20260507100005 | 69 | 271 | 6.1 | 7.8 | 0.00 | 0.00 | 0.00 | 80 | 1011.0 |
| 20260507095507 | 69 | 275 | 5.2 | 7.8 | 0.00 | 0.00 | 0.00 | 80 | 1010.7 |
| 20260507095006 | 69 | 285 | 2.6 | 10.4 | 0.00 | 0.00 | 0.00 | 80 | 1010.8 |
| 20260507094506 | 69 | 281 | 3.5 | 10.4 | 0.00 | 0.00 | 0.00 | 80 | 1011.0 |
| 20260507094005 | 69 | 285 | 7.8 | 10.4 | 0.00 | 0.00 | 0.00 | 80 | 1011.0 |
| 20260507093507 | 69 | 288 | 2.6 | 6.1 | 0.00 | 0.00 | 0.00 | 80 | 1011.0 |
| 20260507093006 | 69 | 273 | 4.3 | 7.8 | 0.00 | 0.00 | 0.00 | 80 | 1010.8 |
| 20260507092506 | 69 | 265 | 2.6 | 9.6 | 0.00 | 0.00 | 0.00 | 79 | 1011.0 |
| 20260507092006 | 69 | 276 | 3.5 | 9.6 | 0.00 | 0.00 | 0.00 | 79 | 1011.0 |
| 20260507091507 | 69 | 270 | 6.1 | 9.6 | 0.00 | 0.00 | 0.00 | 79 | 1011.0 |
| 20260507091006 | 69 | 290 | 3.5 | 7.8 | 0.00 | 0.00 | 0.00 | 79 | 1011.3 |
| 20260507090507 | 69 | 323 | 2.6 | 10.4 | 0.00 | 0.00 | 0.00 | 78 | 1011.2 |
| 20260507090006 | 69 | 274 | 2.6 | 10.4 | 0.00 | 0.00 | 0.00 | 78 | 1011.0 |
| 20260507085508 | 69 | 295 | 5.2 | 9.6 | 0.00 | 0.00 | 0.00 | 78 | 1010.9 |
| 20260507085007 | 70 | 308 | 2.6 | 8.7 | 0.00 | 0.00 | 0.00 | 78 | 1011.1 |
| 20260507084506 | 70 | 290 | 4.3 | 8.7 | 0.00 | 0.00 | 0.00 | 78 | 1011.0 |
| 20260507084006 | 70 | 230 | 0.9 | 7.8 | 0.00 | 0.00 | 0.00 | 77 | 1011.0 |
| 20260507083507 | 70 | 246 | 3.5 | 7.8 | 0.00 | 0.00 | 0.00 | 77 | 1010.9 |
| 20260507083006 | 70 | 270 | 5.2 | 7.0 | 0.00 | 0.00 | 0.00 | 77 | 1011.0 |
| 20260507082506 | 70 | 270 | 2.6 | 7.8 | 0.00 | 0.00 | 0.00 | 77 | 1011.0 |
| 20260507082006 | 70 | 197 | 2.6 | 7.8 | 0.00 | 0.00 | 0.00 | 77 | 1011.1 |
| 20260507081507 | 70 | 196 | 2.6 | 5.2 | 0.00 | 0.00 | 0.00 | 76 | 1010.9 |
| 20260507081007 | 70 | 285 | 2.6 | 5.2 | 0.00 | 0.00 | 0.00 | 76 | 1010.8 |
| 20260507080506 | 70 | 295 | 1.7 | 5.2 | 0.00 | 0.00 | 0.00 | 76 | 1011.0 |
| 20260507080007 | 70 | 272 | 4.3 | 7.0 | 0.00 | 0.00 | 0.00 | 76 | 1010.8 |
| 20260507075506 | 70 | 272 | 2.6 | 11.3 | 0.00 | 0.00 | 0.00 | 76 | 1010.9 |